When you browse on this site, cookies collect data to enhance your experience and personalize the content and advertising you see.
Visit our Privacy Policy to learn more. By continuing to use the site, you agree to this use of cookies and data.
  • In Portugal
  • List of Countries
  • For 7 days
  • Water Temperature
  • Satellite Maps
  • Weather Map
  • Weather Widgets
  • user-avatar
    Login

    Hourly Weather Doregowice

    Today, 17 November, Saturday

    Time Temperature Precipitation Wind Pressure Humidity
    00:00 +1°C° 0 mm 2 mps 767 mmHg 87%
    01:00 -1°C° 0 mm 2 mps 767 mmHg 89%
    02:00 -1°C° 0 mm 2 mps 767 mmHg 90%
    03:00 -1°C° 0 mm 2 mps 767 mmHg 91%
    04:00 -1°C° 0 mm 2 mps 767 mmHg 92%
    05:00 -1°C° 0 mm 2 mps 767 mmHg 92%
    06:00 -1°C° 0 mm 2 mps 767 mmHg 93%
    07:00 -1°C° 0 mm 2 mps 767 mmHg 93%
    08:00 +1°C° 0 mm 2 mps 767 mmHg 86%
    09:00 +1°C° 0 mm 2 mps 767 mmHg 80%
    10:00 +2°C° 0 mm 2 mps 767 mmHg 73%
    11:00 +3°C° 0 mm 2 mps 767 mmHg 68%
    12:00 +4°C° 0 mm 2 mps 767 mmHg 63%
    13:00 +5°C° 0 mm 2 mps 766 mmHg 58%
    14:00 +4°C° 0 mm 2 mps 766 mmHg 61%
    15:00 +3°C° 0 mm 2 mps 766 mmHg 64%
    16:00 +2°C° 0 mm 2 mps 766 mmHg 67%
    17:00 +3°C° 0 mm 1 mps 766 mmHg 68%
    18:00 +3°C° 0 mm 1 mps 765 mmHg 68%
    19:00 +2°C° 0 mm 1 mps 765 mmHg 68%
    20:00 +2°C° 0 mm 1 mps 765 mmHg 67%
    21:00 +2°C° 0 mm 1 mps 765 mmHg 66%
    22:00 +2°C° 0 mm 1 mps 764 mmHg 66%
    23:00 +2°C° 0 mm 1 mps 764 mmHg 65%

    Tomorrow, 18 November, Sunday

    Time Temperature Precipitation Wind Pressure Humidity
    00:00 +2°C° 0 mm 1 mps 764 mmHg 65%
    01:00 +1°C° 0 mm 1 mps 764 mmHg 64%
    02:00 +1°C° 0 mm 1 mps 763 mmHg 65%
    03:00 +1°C° 0 mm 1 mps 762 mmHg 67%
    04:00 +1°C° 0 mm 1 mps 762 mmHg 68%
    05:00 +1°C° 0 mm 1 mps 762 mmHg 73%
    06:00 -1°C° 0 mm 2 mps 761 mmHg 77%
    07:00 -1°C° 0 mm 2 mps 761 mmHg 82%
    08:00 +2°C° 0 mm 2 mps 761 mmHg 83%
    09:00 +3°C° 0 mm 2 mps 761 mmHg 85%
    10:00 +4°C° 0 mm 2 mps 760 mmHg 87%
    11:00 +3°C° 0 mm 3 mps 760 mmHg 87%
    12:00 +4°C° 0 mm 3 mps 759 mmHg 87%
    13:00 +4°C° 0 mm 3 mps 759 mmHg 87%
    14:00 +4°C° 0 mm 3 mps 758 mmHg 87%
    15:00 +4°C° 0 mm 3 mps 758 mmHg 87%
    16:00 +4°C° 0 mm 4 mps 758 mmHg 87%
    17:00 +4°C° 0 mm 4 mps 758 mmHg 86%
    18:00 +4°C° 0 mm 4 mps 757 mmHg 85%
    19:00 +3°C° 0 mm 4 mps 757 mmHg 84%
    20:00 +3°C° 0.1 mm 3 mps 757 mmHg 85%
    21:00 +3°C° 0.1 mm 3 mps 757 mmHg 85%
    22:00 +3°C° 0.1 mm 3 mps 757 mmHg 85%
    23:00 +3°C° 0.1 mm 3 mps 756 mmHg 85%

    Day after tomorrow, 19 November, Monday

    Time Temperature Precipitation Wind Pressure Humidity
    00:00 +3°C° 0.1 mm 3 mps 756 mmHg 85%
    01:00 +3°C° 0.1 mm 3 mps 756 mmHg 84%
    02:00 +3°C° 0.1 mm 4 mps 756 mmHg 83%
    03:00 +3°C° 0.1 mm 4 mps 755 mmHg 82%
    04:00 +3°C° 0.1 mm 4 mps 755 mmHg 80%
    05:00 +1°C° 0.1 mm 4 mps 755 mmHg 79%
    06:00 +1°C° 0.1 mm 5 mps 755 mmHg 77%
    07:00 0°C° 0.1 mm 5 mps 755 mmHg 76%
    08:00 +1°C° 0 mm 5 mps 755 mmHg 74%
    09:00 +1°C° 0 mm 6 mps 755 mmHg 72%
    10:00 +1°C° 0 mm 6 mps 755 mmHg 70%
    11:00 +1°C° 0 mm 6 mps 755 mmHg 70%
    12:00 +1°C° 0 mm 6 mps 755 mmHg 70%
    13:00 +1°C° 0 mm 6 mps 755 mmHg 69%
    14:00 +1°C° 0 mm 5 mps 755 mmHg 71%
    15:00 +1°C° 0 mm 5 mps 755 mmHg 72%
    16:00 +1°C° 0 mm 4 mps 754 mmHg 74%
    17:00 +1°C° 0 mm 4 mps 754 mmHg 77%
    18:00 +1°C° 0 mm 4 mps 754 mmHg 79%
    19:00 +1°C° 0 mm 4 mps 754 mmHg 82%
    20:00 +1°C° 0 mm 4 mps 754 mmHg 83%
    21:00 +1°C° 0 mm 4 mps 754 mmHg 84%
    22:00 +2°C° 0 mm 3 mps 754 mmHg 85%
    23:00 +1°C° 0 mm 3 mps 754 mmHg 86%

    20 November, Tuesday

    Time Temperature Precipitation Wind Pressure Humidity
    00:00 +1°C° 0 mm 3 mps 754 mmHg 88%
    01:00 +1°C° 0 mm 3 mps 754 mmHg 89%
    02:00 +1°C° 0 mm 3 mps 753 mmHg 89%
    03:00 0°C° 0 mm 3 mps 753 mmHg 90%
    04:00 0°C° 0 mm 3 mps 753 mmHg 91%
    05:00 0°C° 0 mm 3 mps 752 mmHg 92%
    06:00 0°C° 0 mm 3 mps 752 mmHg 92%
    07:00 0°C° 0 mm 3 mps 752 mmHg 93%
    08:00 0°C° 0 mm 3 mps 752 mmHg 89%
    09:00 +1°C° 0 mm 3 mps 752 mmHg 85%
    10:00 0°C° 0 mm 4 mps 752 mmHg 81%
    11:00 0°C° 0 mm 4 mps 752 mmHg 77%
    12:00 +2°C° 0 mm 3 mps 751 mmHg 72%
    13:00 +2°C° 0 mm 3 mps 751 mmHg 68%
    14:00 +2°C° 0 mm 3 mps 751 mmHg 72%
    15:00 +1°C° 0 mm 3 mps 750 mmHg 76%
    16:00 0°C° 0 mm 3 mps 750 mmHg 80%
    17:00 0°C° 0 mm 3 mps 750 mmHg 82%
    18:00 0°C° 0 mm 3 mps 750 mmHg 85%
    19:00 -1°C° 0 mm 3 mps 750 mmHg 88%
    20:00 -1°C° 0 mm 3 mps 750 mmHg 88%
    21:00 -1°C° 0 mm 3 mps 750 mmHg 88%
    22:00 -1°C° 0 mm 3 mps 750 mmHg 88%
    23:00 -2°C° 0 mm 3 mps 749 mmHg 87%

    21 November, Wednesday

    Time Temperature Precipitation Wind Pressure Humidity
    00:00 -3°C° 0 mm 4 mps 749 mmHg 87%
    01:00 -3°C° 0 mm 4 mps 749 mmHg 87%
    02:00 -3°C° 0 mm 4 mps 749 mmHg 85%
    03:00 -3°C° 0 mm 4 mps 749 mmHg 83%
    04:00 -4°C° 0 mm 5 mps 748 mmHg 80%
    05:00 -4°C° 0 mm 5 mps 748 mmHg 79%
    06:00 -4°C° 0 mm 5 mps 748 mmHg 77%
    07:00 -4°C° 0 mm 5 mps 748 mmHg 76%
    08:00 -3°C° 0 mm 6 mps 748 mmHg 76%
    09:00 -3°C° 0 mm 6 mps 749 mmHg 76%
    10:00 -2°C° 0 mm 6 mps 749 mmHg 76%
    11:00 -2°C° 0.1 mm 6 mps 749 mmHg 77%
    12:00 -2°C° 0.1 mm 7 mps 749 mmHg 77%
    13:00 -2°C° 0.1 mm 7 mps 749 mmHg 78%
    14:00 -2°C° 0.2 mm 7 mps 749 mmHg 79%
    15:00 -2°C° 0.2 mm 7 mps 749 mmHg 80%
    16:00 -2°C° 0.2 mm 7 mps 749 mmHg 82%
    17:00 -2°C° 0.3 mm 7 mps 749 mmHg 82%
    18:00 -2°C° 0.3 mm 7 mps 749 mmHg 82%
    19:00 -2°C° 0.3 mm 7 mps 749 mmHg 83%
    20:00 -2°C° 0.2 mm 7 mps 750 mmHg 83%
    21:00 -2°C° 0.2 mm 6 mps 750 mmHg 83%
    22:00 -2°C° 0.2 mm 6 mps 750 mmHg 83%
    23:00 -2°C° 0.1 mm 6 mps 750 mmHg 83%

    22 November, Thursday

    Time Temperature Precipitation Wind Pressure Humidity
    00:00 -2°C° 0.1 mm 6 mps 750 mmHg 83%
    01:00 -2°C° 0.1 mm 6 mps 750 mmHg 83%
    02:00 -2°C° 0 mm 6 mps 750 mmHg 83%
    03:00 -2°C° 0 mm 6 mps 750 mmHg 83%
    04:00 -2°C° 0 mm 6 mps 750 mmHg 83%
    05:00 -2°C° 0 mm 7 mps 750 mmHg 83%
    06:00 -2°C° 0 mm 7 mps 750 mmHg 83%
    07:00 -2°C° 0 mm 7 mps 750 mmHg 84%
    08:00 -2°C° 0.1 mm 7 mps 750 mmHg 83%
    09:00 -1°C° 0.1 mm 7 mps 750 mmHg 83%
    10:00 -1°C° 0.1 mm 7 mps 750 mmHg 83%
    11:00 -1°C° 0.1 mm 7 mps 750 mmHg 83%
    12:00 -1°C° 0.1 mm 6 mps 750 mmHg 84%
    13:00 -1°C° 0.1 mm 6 mps 750 mmHg 84%
    14:00 -1°C° 0.2 mm 6 mps 750 mmHg 85%
    15:00 -1°C° 0.2 mm 6 mps 750 mmHg 86%
    16:00 -1°C° 0.2 mm 6 mps 750 mmHg 86%
    17:00 -1°C° 0.3 mm 6 mps 751 mmHg 87%
    18:00 0°C° 0.3 mm 5 mps 751 mmHg 87%
    19:00 0°C° 0.3 mm 5 mps 751 mmHg 88%
    20:00 0°C° 0.2 mm 5 mps 751 mmHg 88%
    21:00 0°C° 0.2 mm 5 mps 752 mmHg 88%
    22:00 -1°C° 0.2 mm 5 mps 752 mmHg 89%
    23:00 -1°C° 0.2 mm 5 mps 752 mmHg 89%
    Show more